This is the latest recevied weather packets stored in our database for station/object n3uvr. If no packets are shown the sender has not sent any weather packets the latest 10 day(s).
| Time | Temp. | Humidity | Pressure | Rain* | Wind** | Luminosity | Snow |
|---|---|---|---|---|---|---|---|
| 1777755601 | 12.78° C | 41% | 1010.2 hPa | 0 mm | - | 207 W/m² | - |
| 1777753811 | 12.22° C | 40% | 1010.4 hPa | 0 mm | - | 236 W/m² | - |
| 1777753204 | 12.22° C | 41% | 1010.6 hPa | 0 mm | - | 221 W/m² | - |
| 1777752608 | 12.78° C | 39% | 1010.7 hPa | 0 mm | - | 257 W/m² | - |
| 1777751994 | 12.78° C | 42% | 1011 hPa | 0 mm | - | 248 W/m² | - |
| 1777751393 | 12.78° C | 40% | 1011.1 hPa | 0 mm | - | 193 W/m² | - |
| 1777749635 | 13.89° C | 41% | 1011.2 hPa | 0 mm | - | 197 W/m² | - |
| 1777749033 | 13.33° C | 41% | 1011.4 hPa | 0 mm | - | 334 W/m² | - |
| 1777748394 | 13.89° C | 42% | 1011.3 hPa | 0 mm | - | 250 W/m² | - |
| 1777747784 | 13.89° C | 39% | 1011.4 hPa | 0 mm | - | 283 W/m² | - |
| 1777747180 | 15° C | 39% | 1011.3 hPa | 0 mm | - | 255 W/m² | - |
| 1777746587 | 14.44° C | 42% | 1011.3 hPa | 0 mm | - | 1243 W/m² | - |
| 1777742976 | 14.44° C | 42% | 1011.4 hPa | 0 mm | - | 223 W/m² | - |
| 1777741196 | 14.44° C | 41% | 1011.6 hPa | 0 mm | - | 1037 W/m² | - |
| 1777740589 | 14.44° C | 45% | 1011.7 hPa | 0 mm | - | 1042 W/m² | - |
| 1777739978 | 13.89° C | 48% | 1011.8 hPa | 0 mm | - | 1049 W/m² | - |
| 1777739382 | 12.78° C | 49% | 1012 hPa | 0 mm | - | 1032 W/m² | - |
| 1777737573 | 12.78° C | 52% | 1012 hPa | 0 mm | - | 202 W/m² | - |
| 1777736989 | 12.22° C | 51% | 1012 hPa | 0 mm | - | 979 W/m² | - |
| 1777735800 | 11.11° C | 58% | 1011.8 hPa | 0 mm | - | 267 W/m² | - |
| 1777735193 | 11.11° C | 60% | 1011.8 hPa | 0 mm | - | 139 W/m² | - |
| 1777734589 | 10.56° C | 60% | 1011.8 hPa | 0 mm | - | 185 W/m² | - |
| 1777733975 | 10.56° C | 58% | 1011.7 hPa | 0 mm | - | 146 W/m² | - |
| 1777733388 | 9.44° C | 64% | 1011.8 hPa | 0 mm | - | 364 W/m² | - |
| 1777731580 | 8.89° C | 74% | 1012.2 hPa | 0 mm | - | 77 W/m² | - |
* Rain latest hour (hover to see other rain measurements)
** Current wind speed in m/s (hover to see current wind gust speed)